This is the latest recevied weather packets stored in our database for station/object KE8AFF-13. If no packets are shown the sender has not sent any weather packets the latest 10 day(s).
| Time | Temp. | Humidity | Pressure | Rain* | Wind** | Luminosity | Snow |
|---|---|---|---|---|---|---|---|
| 1777740109 | 6.11° C | 69% | 1018.6 hPa | 0 mm | - | 153 W/m² | - |
| 1777739804 | 6.11° C | 69% | 1018.7 hPa | 0 mm | - | 142 W/m² | - |
| 1777739501 | 6.11° C | 69% | 1018.7 hPa | 0 mm | - | 176 W/m² | - |
| 1777739198 | 6.11° C | 70% | 1018.7 hPa | 0 mm | - | 193 W/m² | - |
| 1777738895 | 6.67° C | 69% | 1018.8 hPa | 0 mm | - | 292 W/m² | - |
| 1777738592 | 6.67° C | 69% | 1019 hPa | 0 mm | - | 484 W/m² | - |
| 1777738289 | 6.67° C | 67% | 1018.9 hPa | 0 mm | - | 452 W/m² | - |
| 1777737987 | 6.67° C | 69% | 1018.8 hPa | 0 mm | - | 471 W/m² | - |
| 1777737686 | 6.11° C | 71% | 1019.1 hPa | 0 mm | - | 458 W/m² | - |
| 1777737384 | 5.56° C | 70% | 1019 hPa | 0 mm | - | 372 W/m² | - |
| 1777737080 | 5.56° C | 71% | 1018.9 hPa | 0 mm | - | 307 W/m² | - |
| 1777736776 | 5.56° C | 75% | 1018.7 hPa | 0 mm | - | 262 W/m² | - |
| 1777736154 | 5.56° C | 76% | 1019 hPa | 0 mm | - | 222 W/m² | - |
| 1777735851 | 5.56° C | 76% | 1018.8 hPa | 0 mm | - | 206 W/m² | - |
| 1777735549 | 5.56° C | 76% | 1019 hPa | 0 mm | - | 202 W/m² | - |
| 1777735245 | 5° C | 78% | 1018.8 hPa | 0 mm | - | 212 W/m² | - |
| 1777734943 | 5° C | 81% | 1019 hPa | 0 mm | - | 219 W/m² | - |
| 1777734640 | 5.56° C | 82% | 1018.8 hPa | 0 mm | - | 235 W/m² | - |
| 1777734338 | 5° C | 84% | 1018.9 hPa | 0 mm | - | 221 W/m² | - |
| 1777734033 | 4.44° C | 83% | 1018.9 hPa | 0 mm | - | 180 W/m² | - |
| 1777733729 | 5° C | 86% | 1019 hPa | 0 mm | - | 150 W/m² | - |
| 1777733426 | 5° C | 86% | 1019.1 hPa | 0 mm | - | 125 W/m² | - |
| 1777733122 | 4.44° C | 85% | 1018.8 hPa | 0 mm | - | 78 W/m² | - |
| 1777732814 | 4.44° C | 84% | 1018.8 hPa | 0 mm | - | 52 W/m² | - |
| 1777732510 | 4.44° C | 83% | 1018.9 hPa | 0 mm | - | 46 W/m² | - |
* Rain latest hour (hover to see other rain measurements)
** Current wind speed in m/s (hover to see current wind gust speed)